Location: G�migny
(47.9646°N, 1.6950°E)
Time: 04:50:33
(UTC+00:00)

STARLINK-52 - Pass Details

Date: 23 October 2019
Orbit: 443 x 445 km, 53.0° (Epoch: 15 November)

Event Time Altitude Azimuth Distance (km) Brightness Sun altitude
Rises 17:17:27 0° 296° (WNW) 2,441 7.9 -5.2°
Reaches altitude 10° 17:19:35 10° 298° (WNW) 1,568 6.8 -5.5°
Maximum altitude 17:23:06 80° 25° (NNE) 456 3.2 -6.1°
Drops below altitude 10° 17:26:37 10° 114° (ESE) 1,563 5.4 -6.7°
Enters shadow 17:27:40 - 114° (ESE) 1,989 6.0 -6.9°
